Weather in Shira

Russia / Republic of Khakassia     54˚29′13″N   89˚57′46″E
temp.,
°C
wind,
m/s
gust,
m/s
humid.,
%
clouds,
%
prec.,
mm/h
press.,
hPa
HPBL,
m
28 november, sat
sat2801:00−18˚s019583 0.0 104220
04:00−19˚sse119333 0.0 104120
07:00−19˚se119330 0.0 104220
10:00−18˚ese11940 0.0 104120
13:00−15˚e11937 0.0 1039101
16:00−17˚ese119755 0.0 104020
19:00−18˚e119962 0.0 104020
22:00−18˚sse119750 0.0 104120
29 november, sun
sun2901:00−19˚se119325 0.0 104120
04:00−19˚ese11920 0.0 104120
07:00−19˚se11920 0.0 104220
10:00−18˚ese11870 0.0 104220
13:00−15˚ene11890 0.0 104268
16:00−17˚ese11940 0.0 104320
19:00−18˚se11940 0.0 104420
22:00−18˚se11910 0.0 104520
30 november, mon
mon3001:00−18˚se11900 0.0 104520
04:00−18˚se11860 0.0 104620
07:00−18˚sse11844 0.0 104620
10:00−16˚se118274 0.0 104720
13:00−13˚e118355 0.0 104637
16:00−16˚e11870 0.0 104620
19:00−16˚sse118236 0.0 104720
22:00−14˚s118097 0.0 104720
1 december, tue
tue101:00−14˚s118199 0.0 104720
04:00−13˚s1181100 0.0 104720
07:00−13˚s1185100 0.0 104720
10:00−12˚s1187100 0.0 104720
13:00−10˚se1185100 0.0 104678
16:00−10˚ese0188100 0.0 104621
19:00−11˚sw1186100 0.0 104621
22:00−12˚sw118496 0.0 104721
2 december, wed
wed201:00−13˚sw118398 0.0 104721
04:00−14˚sw118364 0.0 104720
07:00−14˚ssw118282 0.0 104820
10:00−14˚ssw118177 0.0 104820
13:00−11˚e118138 0.0 104744
16:00−14˚ese11860 0.0 104720
19:00−15˚se11850 0.0 104720
22:00−15˚s11860 0.0 104620